Time,TemperatureF,DewpointF,PressureIn,WindDirection,WindDirectionDegrees,WindSpeedMPH,WindSpeedGustMPH,Humidity,HourlyPrecipIn,Conditions,Clouds,dailyrainin,SoftwareType,DateUTC
2013-03-19 00:02:00,20.8,12.6,24.04,NW,315,8.0,14.0,70,0.00,,,0.00,meteohub,2013-03-19 06:02:00,
2013-03-19 00:07:00,20.8,12.6,24.05,NW,315,8.0,12.0,70,0.00,,,0.00,meteohub,2013-03-19 06:07:00,
2013-03-19 00:12:00,20.7,12.4,24.05,NW,315,11.0,14.0,70,0.00,,,0.00,meteohub,2013-03-19 06:12:00,
2013-03-19 00:17:00,20.5,12.0,24.05,NW,315,11.0,14.0,69,0.00,,,0.00,meteohub,2013-03-19 06:17:00,
2013-03-19 00:22:00,20.5,12.0,24.06,NW,315,13.0,14.0,69,0.00,,,0.00,meteohub,2013-03-19 06:22:00,
2013-03-19 00:27:00,20.7,12.4,24.06,NW,315,14.0,15.0,70,0.00,,,0.00,meteohub,2013-03-19 06:27:00,
2013-03-19 00:32:00,20.5,12.6,24.06,NW,315,15.0,16.0,71,0.00,,,0.00,meteohub,2013-03-19 06:32:00,
2013-03-19 00:42:00,20.1,12.9,24.06,NW,315,12.0,16.0,73,0.00,,,0.00,meteohub,2013-03-19 06:42:00,
2013-03-19 00:47:00,20.1,13.5,24.05,NW,315,15.0,17.0,75,0.00,,,0.00,meteohub,2013-03-19 06:47:00,
2013-03-19 00:57:00,20.3,14.0,24.06,NW,315,17.0,17.0,76,0.00,,,0.00,meteohub,2013-03-19 06:57:00,
2013-03-19 01:02:00,20.5,14.2,24.06,NW,315,19.0,19.0,76,0.00,,,0.00,meteohub,2013-03-19 07:02:00,
2013-03-19 01:12:00,21.0,13.1,24.05,NW,315,20.0,23.0,71,0.00,,,0.00,meteohub,2013-03-19 07:12:00,
2013-03-19 01:22:00,20.8,13.6,24.06,NW,315,21.0,26.0,73,0.00,,,0.00,meteohub,2013-03-19 07:22:00,
2013-03-19 01:27:00,20.7,13.5,24.06,NW,315,24.0,26.0,73,0.00,,,0.00,meteohub,2013-03-19 07:27:00,
2013-03-19 01:32:00,20.7,12.7,24.06,NW,315,25.0,27.0,71,0.00,,,0.00,meteohub,2013-03-19 07:32:00,
2013-03-19 01:37:00,20.8,13.3,24.06,NW,315,22.0,27.0,72,0.00,,,0.00,meteohub,2013-03-19 07:37:00,
2013-03-19 01:42:00,20.7,13.5,24.06,NW,315,23.0,27.0,73,0.00,,,0.00,meteohub,2013-03-19 07:42:00,
2013-03-19 01:47:00,20.5,13.8,24.06,NW,315,23.0,25.0,75,0.00,,,0.00,meteohub,2013-03-19 07:47:00,
2013-03-19 01:52:00,20.5,14.2,24.06,NW,315,23.0,24.0,76,0.00,,,0.00,meteohub,2013-03-19 07:52:00,
2013-03-19 02:02:00,20.3,14.2,24.07,NW,315,24.0,25.0,77,0.00,,,0.00,meteohub,2013-03-19 08:02:00,
2013-03-19 02:07:00,20.3,14.2,24.08,NW,315,24.0,24.0,77,0.00,,,0.00,meteohub,2013-03-19 08:07:00,
2013-03-19 02:12:00,18.0,12.6,24.08,WNW,293,17.0,24.0,79,0.00,,,0.00,meteohub,2013-03-19 08:12:00,
2013-03-19 02:17:00,17.8,12.0,24.08,NW,315,21.0,24.0,78,0.00,,,0.00,meteohub,2013-03-19 08:17:00,
2013-03-19 02:22:00,16.7,12.4,24.09,NW,315,21.0,24.0,83,0.00,,,0.00,meteohub,2013-03-19 08:22:00,
2013-03-19 02:27:00,15.4,12.2,24.09,NW,315,23.0,23.0,87,0.00,,,0.00,meteohub,2013-03-19 08:27:00,
2013-03-19 02:37:00,14.0,13.1,24.09,NW,315,23.0,23.0,96,0.00,,,0.00,meteohub,2013-03-19 08:37:00,
2013-03-19 02:42:00,13.5,12.7,24.09,NW,315,23.0,23.0,97,0.00,,,0.00,meteohub,2013-03-19 08:42:00,
2013-03-19 02:47:00,12.9,12.0,24.09,NW,315,25.0,25.0,96,0.00,,,0.00,meteohub,2013-03-19 08:47:00,
2013-03-19 02:57:00,12.7,11.7,24.11,NW,315,19.0,25.0,95,0.00,,,0.00,meteohub,2013-03-19 08:57:00,
2013-03-19 03:02:00,12.9,11.5,24.11,NW,315,18.0,25.0,94,0.00,,,0.00,meteohub,2013-03-19 09:02:00,
2013-03-19 03:12:00,12.9,11.3,24.11,North,0,17.0,19.0,93,0.00,,,0.00,meteohub,2013-03-19 09:12:00,
2013-03-19 03:17:00,12.6,10.9,24.11,North,0,16.0,21.0,93,0.00,,,0.00,meteohub,2013-03-19 09:17:00,
2013-03-19 03:27:00,12.0,10.2,24.11,North,0,14.0,21.0,92,0.00,,,0.00,meteohub,2013-03-19 09:27:00,
2013-03-19 03:32:00,12.0,10.2,24.11,North,0,13.0,18.0,92,0.00,,,0.00,meteohub,2013-03-19 09:32:00,
2013-03-19 03:42:00,11.8,10.0,24.11,North,0,15.0,15.0,92,0.00,,,0.00,meteohub,2013-03-19 09:42:00,
2013-03-19 03:47:00,11.8,10.0,24.11,North,0,12.0,15.0,92,0.00,,,0.00,meteohub,2013-03-19 09:47:00,
2013-03-19 03:57:00,11.8,10.0,24.12,North,0,12.0,15.0,92,0.00,,,0.00,meteohub,2013-03-19 09:57:00,
2013-03-19 04:02:00,11.8,10.0,24.12,NNW,338,13.0,14.0,92,0.00,,,0.00,meteohub,2013-03-19 10:02:00,
2013-03-19 04:07:00,11.8,10.0,24.12,NNW,338,13.0,14.0,92,0.00,,,0.00,meteohub,2013-03-19 10:07:00,
2013-03-19 04:17:00,11.8,10.0,24.12,NW,315,11.0,13.0,92,0.00,,,0.00,meteohub,2013-03-19 10:17:00,
2013-03-19 04:22:00,12.0,10.2,24.12,NW,315,11.0,13.0,92,0.00,,,0.00,meteohub,2013-03-19 10:22:00,
2013-03-19 04:32:00,12.2,10.6,24.12,NW,315,9.0,12.0,93,0.00,,,0.00,meteohub,2013-03-19 10:32:00,
2013-03-19 04:37:00,12.2,10.4,24.12,NW,315,5.0,11.0,92,0.00,,,0.00,meteohub,2013-03-19 10:37:00,
2013-03-19 04:47:00,11.7,9.9,24.13,NW,315,7.0,9.0,92,0.00,,,0.00,meteohub,2013-03-19 10:47:00,
2013-03-19 04:52:00,11.7,9.9,24.13,NW,315,5.0,8.0,92,0.00,,,0.00,meteohub,2013-03-19 10:52:00,
2013-03-19 04:57:00,11.7,9.9,24.13,NW,315,5.0,8.0,92,0.00,,,0.00,meteohub,2013-03-19 10:57:00,
2013-03-19 05:07:00,11.7,9.9,24.13,NW,315,4.0,5.0,92,0.00,,,0.00,meteohub,2013-03-19 11:07:00,
2013-03-19 05:17:00,11.8,10.0,24.14,West,270,2.0,4.0,92,0.00,,,0.00,meteohub,2013-03-19 11:17:00,
2013-03-19 05:22:00,11.7,9.9,24.14,NW,315,2.0,4.0,92,0.00,,,0.00,meteohub,2013-03-19 11:22:00,
2013-03-19 05:27:00,11.5,9.7,24.14,NW,315,4.0,4.0,92,0.00,,,0.00,meteohub,2013-03-19 11:27:00,
2013-03-19 05:32:00,11.5,9.7,24.14,NW,315,4.0,4.0,92,0.00,,,0.00,meteohub,2013-03-19 11:32:00,
2013-03-19 05:42:00,11.3,9.5,24.14,NW,315,5.0,5.0,92,0.00,,,0.00,meteohub,2013-03-19 11:42:00,
2013-03-19 05:52:00,11.1,9.3,24.15,NW,315,5.0,6.0,92,0.00,,,0.00,meteohub,2013-03-19 11:52:00,
2013-03-19 05:57:00,10.9,9.1,24.14,NW,315,6.0,6.0,92,0.00,,,0.00,meteohub,2013-03-19 11:57:00,
2013-03-19 06:02:00,10.9,9.1,24.15,NW,315,4.0,6.0,92,0.00,,,0.00,meteohub,2013-03-19 12:02:00,
2013-03-19 06:07:00,10.9,9.1,24.15,NW,315,4.0,6.0,92,0.00,,,0.00,meteohub,2013-03-19 12:07:00,
2013-03-19 06:12:00,11.1,9.3,24.16,NW,315,4.0,6.0,92,0.00,,,0.00,meteohub,2013-03-19 12:12:00,
2013-03-19 06:17:00,11.3,9.5,24.15,West,270,4.0,5.0,92,0.00,,,0.00,meteohub,2013-03-19 12:17:00,
2013-03-19 06:22:00,11.5,9.7,24.16,West,270,4.0,5.0,92,0.00,,,0.00,meteohub,2013-03-19 12:22:00,
2013-03-19 06:27:00,11.8,10.2,24.15,SW,225,5.0,5.0,93,0.00,,,0.00,meteohub,2013-03-19 12:27:00,
2013-03-19 06:32:00,12.7,11.3,24.16,West,270,9.0,9.0,94,0.00,,,0.00,meteohub,2013-03-19 12:32:00,
2013-03-19 06:37:00,13.5,12.0,24.17,NW,315,6.0,10.0,94,0.00,,,0.00,meteohub,2013-03-19 12:37:00,
2013-03-19 06:42:00,13.5,11.8,24.17,NW,315,6.0,10.0,93,0.00,,,0.00,meteohub,2013-03-19 12:42:00,
2013-03-19 06:47:00,13.1,11.5,24.16,NW,315,4.0,10.0,93,0.00,,,0.00,meteohub,2013-03-19 12:47:00,
2013-03-19 06:57:00,12.2,10.4,24.17,SW,225,5.0,6.0,92,0.00,,,0.00,meteohub,2013-03-19 12:57:00,
2013-03-19 07:02:00,12.6,10.9,24.17,West,270,6.0,6.0,93,0.00,,,0.00,meteohub,2013-03-19 13:02:00,
2013-03-19 07:07:00,12.6,10.9,24.17,West,270,6.0,6.0,93,0.00,,,0.00,meteohub,2013-03-19 13:07:00,
2013-03-19 07:12:00,14.4,12.9,24.17,West,270,8.0,9.0,94,0.00,,,0.00,meteohub,2013-03-19 13:12:00,
2013-03-19 07:22:00,14.5,13.1,24.18,West,270,7.0,10.0,94,0.00,,,0.00,meteohub,2013-03-19 13:22:00,
2013-03-19 07:27:00,14.5,13.1,24.18,West,270,8.0,10.0,94,0.00,,,0.00,meteohub,2013-03-19 13:27:00,
2013-03-19 07:32:00,14.7,13.3,24.18,West,270,7.0,10.0,94,0.00,,,0.00,meteohub,2013-03-19 13:32:00,
2013-03-19 07:42:00,15.3,13.8,24.19,West,270,8.0,10.0,94,0.00,,,0.00,meteohub,2013-03-19 13:42:00,
2013-03-19 07:47:00,15.4,14.0,24.19,West,270,10.0,12.0,94,0.00,,,0.00,meteohub,2013-03-19 13:47:00,
2013-03-19 07:52:00,15.4,14.0,24.19,NW,315,10.0,12.0,94,0.00,,,0.00,meteohub,2013-03-19 13:52:00,
2013-03-19 08:02:00,15.6,14.2,24.19,NW,315,11.0,11.0,94,0.00,,,0.00,meteohub,2013-03-19 14:02:00,
2013-03-19 08:07:00,15.6,14.2,24.19,NW,315,11.0,11.0,94,0.00,,,0.00,meteohub,2013-03-19 14:07:00,
2013-03-19 08:12:00,17.4,16.2,24.19,NW,315,11.0,11.0,95,0.00,,,0.00,meteohub,2013-03-19 14:12:00,
2013-03-19 08:17:00,18.0,16.7,24.19,NW,315,11.0,11.0,95,0.00,,,0.00,meteohub,2013-03-19 14:17:00,
2013-03-19 08:27:00,18.1,16.7,24.20,NW,315,11.0,13.0,94,0.00,,,0.00,meteohub,2013-03-19 14:27:00,
2013-03-19 08:37:00,18.9,17.4,24.20,NW,315,10.0,13.0,94,0.00,,,0.00,meteohub,2013-03-19 14:37:00,
2013-03-19 08:42:00,19.2,17.8,24.20,NW,315,11.0,12.0,94,0.00,,,0.00,meteohub,2013-03-19 14:42:00,
2013-03-19 08:47:00,19.6,18.0,24.21,NW,315,10.0,12.0,93,0.00,,,0.00,meteohub,2013-03-19 14:47:00,
2013-03-19 08:52:00,19.8,17.8,24.21,NW,315,11.0,12.0,92,0.00,,,0.00,meteohub,2013-03-19 14:52:00,
2013-03-19 08:57:00,19.8,17.6,24.20,NW,315,15.0,15.0,91,0.00,,,0.00,meteohub,2013-03-19 14:57:00,
2013-03-19 09:07:00,19.9,17.8,24.21,NW,315,11.0,15.0,91,0.00,,,0.00,meteohub,2013-03-19 15:07:00,
2013-03-19 09:12:00,20.3,17.2,24.21,NW,315,14.0,15.0,88,0.00,,,0.00,meteohub,2013-03-19 15:12:00,
2013-03-19 09:17:00,20.7,17.6,24.21,NW,315,11.0,16.0,88,0.00,,,0.00,meteohub,2013-03-19 15:17:00,
2013-03-19 09:22:00,20.8,17.6,24.21,NW,315,15.0,16.0,87,0.00,,,0.00,meteohub,2013-03-19 15:22:00,
2013-03-19 09:27:00,21.0,17.4,24.21,NW,315,11.0,16.0,86,0.00,,,0.00,meteohub,2013-03-19 15:27:00,
2013-03-19 09:37:00,21.9,18.1,24.22,NW,315,12.0,15.0,85,0.00,,,0.00,meteohub,2013-03-19 15:37:00,
2013-03-19 09:42:00,22.6,18.9,24.22,NW,315,11.0,14.0,85,0.00,,,0.00,meteohub,2013-03-19 15:42:00,
2013-03-19 09:52:00,22.6,18.0,24.22,NW,315,15.0,16.0,82,0.00,,,0.00,meteohub,2013-03-19 15:52:00,
2013-03-19 09:57:00,21.7,17.4,24.22,NW,315,21.0,21.0,83,0.00,,,0.00,meteohub,2013-03-19 15:57:00,
2013-03-19 10:02:00,21.7,17.6,24.22,NW,315,15.0,21.0,84,0.00,,,0.00,meteohub,2013-03-19 16:02:00,
2013-03-19 10:07:00,21.7,17.6,24.22,NW,315,15.0,21.0,84,0.00,,,0.00,meteohub,2013-03-19 16:07:00,
2013-03-19 10:17:00,21.4,17.2,24.22,NW,315,20.0,22.0,84,0.00,,,0.00,meteohub,2013-03-19 16:17:00,
2013-03-19 10:22:00,20.8,16.7,24.23,NW,315,22.0,23.0,84,0.00,,,0.00,meteohub,2013-03-19 16:22:00,
2013-03-19 10:27:00,20.5,15.1,24.23,NW,315,26.0,28.0,79,0.00,,,0.00,meteohub,2013-03-19 16:27:00,
2013-03-19 10:32:00,21.4,14.0,24.23,NW,315,26.0,28.0,73,0.00,,,0.00,meteohub,2013-03-19 16:32:00,
2013-03-19 10:42:00,23.4,12.6,24.24,NW,315,22.0,28.0,63,0.00,,,0.00,meteohub,2013-03-19 16:42:00,
2013-03-19 10:47:00,22.3,8.6,24.24,WNW,293,21.0,28.0,55,0.00,,,0.00,meteohub,2013-03-19 16:47:00,
2013-03-19 10:52:00,23.0,5.7,24.23,NW,315,24.0,28.0,47,0.00,,,0.00,meteohub,2013-03-19 16:52:00,
2013-03-19 10:57:00,23.4,4.6,24.24,NW,315,25.0,30.0,44,0.00,,,0.00,meteohub,2013-03-19 16:57:00,
2013-03-19 11:02:00,23.7,5.5,24.24,NW,315,24.0,36.0,45,0.00,,,0.00,meteohub,2013-03-19 17:02:00,
2013-03-19 11:07:00,23.7,5.5,24.24,NW,315,24.0,36.0,45,0.00,,,0.00,meteohub,2013-03-19 17:07:00,
2013-03-19 11:12:00,24.4,4.6,24.24,NW,315,25.0,32.0,42,0.00,,,0.00,meteohub,2013-03-19 17:12:00,
2013-03-19 11:22:00,24.1,2.1,24.25,NW,315,23.0,29.0,38,0.00,,,0.00,meteohub,2013-03-19 17:22:00,
2013-03-19 11:27:00,24.8,1.6,24.24,NW,315,26.0,29.0,36,0.00,,,0.00,meteohub,2013-03-19 17:27:00,
2013-03-19 11:32:00,24.4,0.1,24.25,NW,315,20.0,29.0,34,0.00,,,0.00,meteohub,2013-03-19 17:32:00,
2013-03-19 11:37:00,24.6,1.4,24.25,NW,315,23.0,26.0,36,0.00,,,0.00,meteohub,2013-03-19 17:37:00,
2013-03-19 11:42:00,25.2,0.7,24.25,NW,315,30.0,32.0,34,0.00,,,0.00,meteohub,2013-03-19 17:42:00,
2013-03-19 11:52:00,25.3,0.9,24.25,NW,315,22.0,34.0,34,0.00,,,0.00,meteohub,2013-03-19 17:52:00,
2013-03-19 11:57:00,26.1,1.6,24.25,NW,315,28.0,34.0,34,0.00,,,0.00,meteohub,2013-03-19 17:57:00,
2013-03-19 12:07:00,25.3,-1.8,24.25,NW,315,27.0,30.0,30,0.00,,,0.00,meteohub,2013-03-19 18:07:00,
2013-03-19 12:12:00,25.3,-5.6,24.25,NW,315,30.0,30.0,25,0.00,,,0.00,meteohub,2013-03-19 18:12:00,
2013-03-19 12:22:00,25.7,-1.5,24.25,NW,315,27.0,32.0,30,0.00,,,0.00,meteohub,2013-03-19 18:22:00,
2013-03-19 12:27:00,25.5,-2.4,24.25,NW,315,21.0,32.0,29,0.00,,,0.00,meteohub,2013-03-19 18:27:00,
2013-03-19 12:32:00,25.3,-2.6,24.25,North,0,23.0,34.0,29,0.00,,,0.00,meteohub,2013-03-19 18:32:00,
2013-03-19 12:37:00,25.5,-1.7,24.25,NW,315,21.0,34.0,30,0.00,,,0.00,meteohub,2013-03-19 18:37:00,
2013-03-19 12:42:00,26.1,-0.4,24.25,NW,315,18.0,34.0,31,0.00,,,0.00,meteohub,2013-03-19 18:42:00,
2013-03-19 12:52:00,26.6,-2.9,24.25,NW,315,24.0,24.0,27,0.00,,,0.00,meteohub,2013-03-19 18:52:00,
2013-03-19 12:57:00,27.0,-1.1,24.25,North,0,23.0,27.0,29,0.00,,,0.00,meteohub,2013-03-19 18:57:00,
2013-03-19 13:02:00,26.4,-3.8,24.26,NW,315,20.0,27.0,26,0.00,,,0.00,meteohub,2013-03-19 19:02:00,
2013-03-19 13:07:00,26.4,-3.8,24.26,NW,315,20.0,27.0,26,0.00,,,0.00,meteohub,2013-03-19 19:07:00,
2013-03-19 13:12:00,27.3,-1.5,24.26,NW,315,16.0,25.0,28,0.00,,,0.00,meteohub,2013-03-19 19:12:00,
2013-03-19 13:17:00,27.9,-1.8,24.26,North,0,11.0,20.0,27,0.00,,,0.00,meteohub,2013-03-19 19:17:00,
2013-03-19 13:22:00,28.0,-2.4,24.26,North,0,9.0,23.0,26,0.00,,,0.00,meteohub,2013-03-19 19:22:00,
2013-03-19 13:27:00,28.0,-2.4,24.26,NW,315,15.0,23.0,26,0.00,,,0.00,meteohub,2013-03-19 19:27:00,
2013-03-19 13:32:00,28.8,0.5,24.26,NW,315,17.0,17.0,29,0.00,,,0.00,meteohub,2013-03-19 19:32:00,
2013-03-19 13:37:00,28.4,1.6,24.26,NW,315,13.0,18.0,31,0.00,,,0.00,meteohub,2013-03-19 19:37:00,
2013-03-19 13:42:00,27.9,-2.6,24.26,North,0,17.0,18.0,26,0.00,,,0.00,meteohub,2013-03-19 19:42:00,
2013-03-19 13:47:00,28.0,-3.3,24.26,NW,315,14.0,21.0,25,0.00,,,0.00,meteohub,2013-03-19 19:47:00,
2013-03-19 13:57:00,28.9,-1.7,24.26,NW,315,11.0,21.0,26,0.00,,,0.00,meteohub,2013-03-19 19:57:00,
2013-03-19 14:02:00,29.3,-1.3,24.26,West,270,9.0,14.0,26,0.00,,,0.00,meteohub,2013-03-19 20:02:00,
2013-03-19 14:07:00,29.3,-1.3,24.26,West,270,9.0,14.0,26,0.00,,,0.00,meteohub,2013-03-19 20:07:00,
2013-03-19 14:12:00,30.9,-0.8,24.26,NW,315,4.0,14.0,25,0.00,,,0.00,meteohub,2013-03-19 20:12:00,
2013-03-19 14:22:00,31.3,-1.3,24.26,NW,315,10.0,13.0,24,0.00,,,0.00,meteohub,2013-03-19 20:22:00,
2013-03-19 14:27:00,30.9,0.9,24.26,SW,225,9.0,13.0,27,0.00,,,0.00,meteohub,2013-03-19 20:27:00,
2013-03-19 14:32:00,29.8,1.4,24.26,West,270,13.0,17.0,29,0.00,,,0.00,meteohub,2013-03-19 20:32:00,
2013-03-19 14:37:00,29.7,0.5,24.25,WSW,248,20.0,20.0,28,0.00,,,0.00,meteohub,2013-03-19 20:37:00,
2013-03-19 14:47:00,30.4,4.6,24.26,SW,225,11.0,20.0,33,0.00,,,0.00,meteohub,2013-03-19 20:47:00,
2013-03-19 14:52:00,30.4,1.2,24.25,West,270,12.0,20.0,28,0.00,,,0.00,meteohub,2013-03-19 20:52:00,
2013-03-19 15:02:00,30.9,0.9,24.25,NW,315,7.0,17.0,27,0.00,,,0.00,meteohub,2013-03-19 21:02:00,
2013-03-19 15:07:00,30.9,0.9,24.25,NW,315,7.0,17.0,27,0.00,,,0.00,meteohub,2013-03-19 21:07:00,
2013-03-19 15:17:00,32.5,1.4,24.25,SW,225,9.0,13.0,26,0.00,,,0.00,meteohub,2013-03-19 21:17:00,
2013-03-19 15:22:00,32.0,0.1,24.25,SW,225,10.0,13.0,25,0.00,,,0.00,meteohub,2013-03-19 21:22:00,
2013-03-19 15:32:00,32.9,3.4,24.25,NW,315,10.0,16.0,28,0.00,,,0.00,meteohub,2013-03-19 21:32:00,
2013-03-19 15:37:00,33.3,0.3,24.25,West,270,8.0,16.0,24,0.00,,,0.00,meteohub,2013-03-19 21:37:00,
2013-03-19 15:42:00,33.4,-0.4,24.25,West,270,17.0,17.0,23,0.00,,,0.00,meteohub,2013-03-19 21:42:00,
2013-03-19 15:52:00,32.9,-0.9,24.25,West,270,13.0,17.0,23,0.00,,,0.00,meteohub,2013-03-19 21:52:00,
2013-03-19 16:02:00,33.1,-0.8,24.25,West,270,12.0,16.0,23,0.00,,,0.00,meteohub,2013-03-19 22:02:00,
2013-03-19 16:12:00,34.0,1.8,24.25,West,270,12.0,13.0,25,0.00,,,0.00,meteohub,2013-03-19 22:12:00,
2013-03-19 16:22:00,33.6,-0.2,24.25,NW,315,16.0,18.0,23,0.00,,,0.00,meteohub,2013-03-19 22:22:00,
2013-03-19 16:27:00,34.2,0.1,24.25,NW,315,11.0,18.0,23,0.00,,,0.00,meteohub,2013-03-19 22:27:00,
2013-03-19 16:32:00,34.2,-4.9,24.25,West,270,14.0,16.0,18,0.00,,,0.00,meteohub,2013-03-19 22:32:00,
2013-03-19 16:37:00,33.4,-3.3,24.24,West,270,11.0,17.0,20,0.00,,,0.00,meteohub,2013-03-19 22:37:00,
2013-03-19 16:42:00,33.6,-0.2,24.24,West,270,11.0,17.0,23,0.00,,,0.00,meteohub,2013-03-19 22:42:00,
2013-03-19 16:52:00,34.7,-1.3,24.25,West,270,12.0,17.0,21,0.00,,,0.00,meteohub,2013-03-19 22:52:00,
2013-03-19 17:02:00,35.4,-1.7,24.25,NW,315,10.0,17.0,20,0.00,,,0.00,meteohub,2013-03-19 23:02:00,
2013-03-19 17:07:00,35.4,-1.7,24.25,NW,315,10.0,13.0,20,0.00,,,0.00,meteohub,2013-03-19 23:07:00,
2013-03-19 17:12:00,35.6,-2.6,24.25,South,180,9.0,12.0,19,0.00,,,0.00,meteohub,2013-03-19 23:12:00,
2013-03-19 17:17:00,35.4,0.3,24.25,SW,225,12.0,13.0,22,0.00,,,0.00,meteohub,2013-03-19 23:17:00,
2013-03-19 17:22:00,34.9,0.9,24.25,SW,225,11.0,13.0,23,0.00,,,0.00,meteohub,2013-03-19 23:22:00,
2013-03-19 17:27:00,34.5,1.4,24.25,South,180,12.0,13.0,24,0.00,,,0.00,meteohub,2013-03-19 23:27:00,
2013-03-19 17:37:00,34.0,2.7,24.25,SW,225,13.0,14.0,26,0.00,,,0.00,meteohub,2013-03-19 23:37:00,
2013-03-19 17:42:00,33.8,1.8,24.25,West,270,12.0,15.0,25,0.00,,,0.00,meteohub,2013-03-19 23:42:00,
2013-03-19 17:47:00,33.4,3.7,24.25,SW,225,9.0,15.0,28,0.00,,,0.00,meteohub,2013-03-19 23:47:00,
2013-03-19 17:57:00,32.9,4.1,24.24,SW,225,8.0,13.0,29,0.00,,,0.00,meteohub,2013-03-19 23:57:00,
2013-03-19 18:02:00,32.9,4.8,24.24,SW,225,9.0,11.0,30,0.00,,,0.00,meteohub,2013-03-20 00:02:00,
2013-03-19 18:07:00,32.9,4.8,24.24,SW,225,9.0,11.0,30,0.00,,,0.00,meteohub,2013-03-20 00:07:00,
2013-03-19 18:12:00,32.9,3.4,24.24,SW,225,11.0,11.0,28,0.00,,,0.00,meteohub,2013-03-20 00:12:00,
2013-03-19 18:17:00,32.5,4.5,24.24,SW,225,11.0,11.0,30,0.00,,,0.00,meteohub,2013-03-20 00:17:00,
2013-03-19 18:22:00,32.2,5.5,24.24,SW,225,10.0,11.0,32,0.00,,,0.00,meteohub,2013-03-20 00:22:00,
2013-03-19 18:27:00,31.8,6.6,24.24,SW,225,8.0,11.0,34,0.00,,,0.00,meteohub,2013-03-20 00:27:00,
2013-03-19 18:32:00,31.6,6.4,24.24,SW,225,9.0,11.0,34,0.00,,,0.00,meteohub,2013-03-20 00:32:00,
2013-03-19 18:42:00,31.5,6.3,24.23,SW,225,9.0,11.0,34,0.00,,,0.00,meteohub,2013-03-20 00:42:00,
2013-03-19 18:47:00,31.1,6.6,24.23,SSW,203,8.0,9.0,35,0.00,,,0.00,meteohub,2013-03-20 00:47:00,
2013-03-19 18:52:00,30.9,6.4,24.23,SW,225,7.0,9.0,35,0.00,,,0.00,meteohub,2013-03-20 00:52:00,
2013-03-19 18:57:00,31.1,6.1,24.23,SW,225,7.0,9.0,34,0.00,,,0.00,meteohub,2013-03-20 00:57:00,
2013-03-19 19:02:00,31.3,6.1,24.23,SW,225,8.0,9.0,34,0.00,,,0.00,meteohub,2013-03-20 01:02:00,
2013-03-19 19:07:00,31.3,6.1,24.23,SW,225,8.0,8.0,34,0.00,,,0.00,meteohub,2013-03-20 01:07:00,
2013-03-19 19:17:00,30.6,7.9,24.22,South,180,8.0,8.0,38,0.00,,,0.00,meteohub,2013-03-20 01:17:00,
2013-03-19 19:23:00,30.4,6.1,24.22,South,180,8.0,8.0,35,0.00,,,0.00,meteohub,2013-03-20 01:23:00,
2013-03-19 19:32:00,30.2,5.2,24.22,South,180,9.0,9.0,34,0.00,,,0.00,meteohub,2013-03-20 01:32:00,
2013-03-19 19:37:00,29.8,6.1,24.22,South,180,11.0,11.0,36,0.00,,,0.00,meteohub,2013-03-20 01:37:00,
2013-03-19 19:47:00,29.3,6.3,24.22,South,180,9.0,11.0,37,0.00,,,0.00,meteohub,2013-03-20 01:47:00,
2013-03-19 19:52:00,29.5,5.2,24.21,South,180,11.0,11.0,35,0.00,,,0.00,meteohub,2013-03-20 01:52:00,
2013-03-19 19:57:00,29.3,5.7,24.21,South,180,11.0,11.0,36,0.00,,,0.00,meteohub,2013-03-20 01:57:00,
2013-03-19 20:02:00,29.3,5.7,24.21,South,180,11.0,11.0,36,0.00,,,0.00,meteohub,2013-03-20 02:02:00,
2013-03-19 20:07:00,29.3,5.7,24.21,South,180,11.0,11.0,36,0.00,,,0.00,meteohub,2013-03-20 02:07:00,
2013-03-19 20:12:00,29.1,4.3,24.21,South,180,12.0,12.0,34,0.00,,,0.00,meteohub,2013-03-20 02:12:00,
2013-03-19 20:17:00,28.8,4.5,24.21,South,180,13.0,13.0,35,0.00,,,0.00,meteohub,2013-03-20 02:17:00,
2013-03-19 20:22:00,28.4,4.8,24.20,South,180,11.0,13.0,36,0.00,,,0.00,meteohub,2013-03-20 02:22:00,
2013-03-19 20:32:00,28.4,3.0,24.20,South,180,12.0,14.0,33,0.00,,,0.00,meteohub,2013-03-20 02:32:00,
2013-03-19 20:42:00,28.4,3.6,24.20,South,180,13.0,14.0,34,0.00,,,0.00,meteohub,2013-03-20 02:42:00,
2013-03-19 20:52:00,28.2,4.1,24.19,South,180,12.0,14.0,35,0.00,,,0.00,meteohub,2013-03-20 02:52:00,
2013-03-19 20:57:00,27.9,4.3,24.19,South,180,15.0,15.0,36,0.00,,,0.00,meteohub,2013-03-20 02:57:00,
2013-03-19 21:02:00,27.9,5.0,24.19,South,180,15.0,15.0,37,0.00,,,0.00,meteohub,2013-03-20 03:02:00,
2013-03-19 21:12:00,27.3,5.0,24.19,South,180,17.0,17.0,38,0.00,,,0.00,meteohub,2013-03-20 03:12:00,
2013-03-19 21:17:00,27.1,6.1,24.19,South,180,20.0,20.0,40,0.00,,,0.00,meteohub,2013-03-20 03:17:00,
2013-03-19 21:27:00,27.3,5.5,24.18,South,180,23.0,23.0,39,0.00,,,0.00,meteohub,2013-03-20 03:27:00,
2013-03-19 21:32:00,27.3,6.3,24.18,South,180,25.0,25.0,40,0.00,,,0.00,meteohub,2013-03-20 03:32:00,
2013-03-19 21:37:00,27.0,7.0,24.18,South,180,26.0,26.0,42,0.00,,,0.00,meteohub,2013-03-20 03:37:00,
2013-03-19 21:47:00,26.4,7.0,24.18,South,180,22.0,26.0,43,0.00,,,0.00,meteohub,2013-03-20 03:47:00,
2013-03-19 21:57:00,26.4,6.4,24.18,South,180,21.0,24.0,42,0.00,,,0.00,meteohub,2013-03-20 03:57:00,
2013-03-19 22:02:00,26.4,5.9,24.18,South,180,22.0,23.0,41,0.00,,,0.00,meteohub,2013-03-20 04:02:00,
2013-03-19 22:07:00,26.4,5.9,24.18,South,180,22.0,23.0,41,0.00,,,0.00,meteohub,2013-03-20 04:07:00,
2013-03-19 22:12:00,26.4,5.9,24.17,South,180,26.0,26.0,41,0.00,,,0.00,meteohub,2013-03-20 04:12:00,
2013-03-19 22:17:00,26.2,5.7,24.17,South,180,22.0,26.0,41,0.00,,,0.00,meteohub,2013-03-20 04:17:00,
2013-03-19 22:22:00,26.2,5.7,24.18,South,180,23.0,26.0,41,0.00,,,0.00,meteohub,2013-03-20 04:22:00,
2013-03-19 22:27:00,26.4,5.9,24.17,South,180,22.0,26.0,41,0.00,,,0.00,meteohub,2013-03-20 04:27:00,
2013-03-19 22:37:00,26.2,5.7,24.17,South,180,23.0,26.0,41,0.00,,,0.00,meteohub,2013-03-20 04:37:00,
2013-03-19 22:42:00,26.2,7.3,24.16,South,180,23.0,26.0,44,0.00,,,0.00,meteohub,2013-03-20 04:42:00,
2013-03-19 22:47:00,26.1,7.7,24.16,South,180,27.0,28.0,45,0.00,,,0.00,meteohub,2013-03-20 04:47:00,
2013-03-19 22:52:00,26.2,7.7,24.16,South,180,30.0,30.0,45,0.00,,,0.00,meteohub,2013-03-20 04:52:00,
2013-03-19 22:57:00,26.2,8.2,24.15,South,180,31.0,31.0,46,0.00,,,0.00,meteohub,2013-03-20 04:57:00,
2013-03-19 23:07:00,26.2,8.2,24.16,South,180,29.0,33.0,46,0.00,,,0.00,meteohub,2013-03-20 05:07:00,
2013-03-19 23:12:00,26.1,8.6,24.15,South,180,30.0,33.0,47,0.00,,,0.00,meteohub,2013-03-20 05:12:00,
2013-03-19 23:22:00,25.5,9.0,24.15,South,180,28.0,32.0,49,0.00,,,0.00,meteohub,2013-03-20 05:22:00,
2013-03-19 23:27:00,25.5,8.6,24.14,South,180,33.0,33.0,48,0.00,,,0.00,meteohub,2013-03-20 05:27:00,
2013-03-19 23:32:00,25.7,8.8,24.14,South,180,35.0,35.0,48,0.00,,,0.00,meteohub,2013-03-20 05:32:00,
2013-03-19 23:37:00,25.5,8.6,24.13,South,180,37.0,37.0,48,0.00,,,0.00,meteohub,2013-03-20 05:37:00,
2013-03-19 23:42:00,25.9,8.4,24.13,South,180,34.0,38.0,47,0.00,,,0.00,meteohub,2013-03-20 05:42:00,
2013-03-19 23:47:00,25.5,8.6,24.13,South,180,34.0,38.0,48,0.00,,,0.00,meteohub,2013-03-20 05:47:00,
2013-03-19 23:52:00,25.7,7.7,24.13,South,180,36.0,38.0,46,0.00,,,0.00,meteohub,2013-03-20 05:52:00,
2013-03-19 23:57:00,25.7,8.8,24.13,South,180,31.0,36.0,48,0.00,,,0.00,meteohub,2013-03-20 05:57:00,